O3B FM9 (40351 NORAD) Tracking and Keplerian Element Data

This shows tracking and keplerian element data for the satellite.

Feedback or suggestion? Click here.




ElementValue
Catalog40351
NameO3B FM9
Epoch Orbit12372
Epoch Day268.17086585
Epoch Year2021
RAAN359.6382
Inclination0.0451
Eccentricity0.0002529
Argument of Perigee183.4822
Mean Anonmoly176.8814
Mean Motion5.00115161
Decay Rate-2.7E-07
L11 40351U 14083D 21268.17086585 -.00000027 00000-0 00000-0 0 9998
L22 40351 0.0451 359.6382 0002529 183.4822 176.8814 5.00115161123727

Live tracking and technical data element details for O3B FM9 (NORAD 40351). O3B FM9 can be tracked NOW for your location showing map with azimuth and elevation plus other details from your city location.

Track the satellite on the map from your city or location and see movement details for azimuth, elevation, latitude, longitude, range, height, and movement on the map or in text.







IsCatalogInMostPopularTable: catalog: 40351, numindb: 562
Update: records affected: 1



GetName: 40351 O3B FM9

Hit Count: updated at: Mon, 27 Sep 2021 01:05:42 GMT